Location: Namasale
(1.5000°N, 32.6167°E)
Time: 09:22:07
(UTC+00:00)

Courier 1B - Pass Details

Date: 27 April 2021
Orbit: 962 x 1209 km, 28.3° (Epoch: 15 May)

Event Time Altitude Azimuth Distance (km) Brightness Sun altitude
Rises 05:24:36 0° 262° (W) 4,082 10.2 24.0°
Reaches altitude 10° 05:27:50 10° 271° (W) 3,095 9.7 24.8°
Maximum altitude 05:34:31 32° 332° (NNW) 1,840 9.1 26.4°
Drops below altitude 10° 05:40:54 10° 33° (NNE) 2,947 10.8 27.9°
Sets 05:43:55 0° 43° (NE) 3,862 11.5 28.6°
